Powrót do katalogu

STARLINK-38113

AktywnyŁącznośćSSO
NORAD 100112·PAYLOAD·🇺🇸 United States

Wystrzelony Jul 21, 2026 z Vandenberg Space Force Base

Loading…

Następne Przeloty (najbliższe 24 godziny)

TLE

ŚwieżeSource: Space-Track

Epoka: Sep 14, 2026, 00:42 UTC

1 A0112U 26166M   26257.02938411  .00000946  00000-0  72135-5 0  9997
2 A0112  97.2829 275.0414 0001078  90.8015 269.3374 15.75184821  8582

Śledź STARLINK-38113 w czasie rzeczywistym z AllMySat

Download on the App Store